EW6338 Weather Reports


Display with metric or nautical units.
time (UTC)temp
F
wind
direction
speed
MPH
gust
MPH
rain 1hr
in
rain 24hr
in
rain mn
in
humidity
%
barometer
mb
20260509070022 38 244 0.0 0.0 0.00 0.00 0.00 82 1012.5
20260509064519 39 244 0.0 0.0 0.00 0.00 0.00 81 1012.6
20260509063017 40 244 0.0 0.0 0.00 0.00 0.00 80 1012.6
20260509061520 40 244 0.0 0.0 0.00 0.00 0.00 79 1012.6
20260509060013 41 244 0.0 0.0 0.00 0.00 0.00 78 1012.5
20260509054512 41 244 0.0 1.0 0.00 0.00 0.00 79 1012.5
20260509053011 41 262 0.0 0.0 0.00 0.00 0.00 77 1012.4
20260509051509 41 253 0.0 0.0 0.00 0.00 0.00 77 1012.4
20260509050007 41 266 0.0 0.0 0.00 0.00 0.00 75 1012.3
20260509044504 42 266 0.0 0.0 0.00 0.00 0.00 74 1012.3
20260509043002 42 266 0.0 0.0 0.00 0.00 0.00 72 1012.2
20260509041605 43 266 0.0 0.0 0.00 0.00 0.00 70 1012.2
20260509040109 44 266 0.0 0.0 0.00 0.00 0.00 68 1012.1
20260509034604 45 266 0.0 0.0 0.00 0.00 0.00 67 1012.0
20260509033053 45 230 0.0 0.0 0.00 0.00 0.00 67 1011.9
20260509031603 46 229 0.0 0.0 0.00 0.00 0.00 64 1011.8
20260509030052 47 229 0.0 0.0 0.00 0.00 0.00 61 1011.7
20260509024551 47 120 0.0 2.0 0.00 0.00 0.00 61 1011.6
20260509023051 48 296 0.0 0.0 0.00 0.00 0.00 60 1011.5
20260509021547 49 281 0.0 1.0 0.00 0.00 0.00 58 1011.3
20260509020052 50 271 0.0 2.0 0.00 0.00 0.00 57 1011.1
20260509014544 51 21 0.0 1.0 0.00 0.00 0.00 55 1010.8
20260509013050 50 21 0.0 1.0 0.00 0.00 0.00 55 1010.6
20260509011540 50 278 0.0 1.0 0.00 0.00 0.00 54 1010.4
20260509010048 50 257 0.0 2.0 0.00 0.00 0.00 53 1009.9
20260509004534 51 41 0.0 2.0 0.00 0.00 0.00 51 1009.7
20260509003031 52 320 0.0 2.0 0.00 0.00 0.00 49 1009.3
20260509001529 52 351 0.0 1.0 0.00 0.00 0.00 48 1009.0
20260509000026 53 323 0.0 0.0 0.00 0.00 0.00 46 1008.8
20260508234526 54 22 0.0 1.0 0.00 0.00 0.00 46 1008.4
20260508233025 55 34 0.0 3.0 0.00 0.00 0.00 43 1008.2
20260508231524 56 22 0.0 1.0 0.00 0.00 0.00 42 1008.1
20260508230035 56 18 1.0 6.0 0.00 0.00 0.00 40 1007.8
20260508224534 57 268 0.0 2.0 0.00 0.00 0.00 41 1007.7
20260508223025 57 250 0.0 8.0 0.00 0.00 0.00 39 1007.7
20260508221537 58 27 1.0 7.0 0.00 0.00 0.00 39 1007.7
20260508220022 58 352 1.0 7.0 0.00 0.00 0.00 38 1007.6
20260508214522 60 173 0.0 4.0 0.00 0.00 0.00 38 1007.4
20260508213024 59 10 0.0 2.0 0.00 0.00 0.00 40 1007.3
20260508211520 59 288 2.0 7.0 0.00 0.00 0.00 38 1007.3
20260508210020 60 294 0.0 11.0 0.00 0.00 0.00 35 1007.3
20260508204519 62 282 2.0 5.0 0.00 0.00 0.00 34 1007.1
20260508203017 60 270 1.0 10.0 0.00 0.00 0.00 35 1007.1
20260508201517 60 328 2.0 10.0 0.00 0.00 0.00 34 1007.0
20260508200017 59 259 2.0 8.0 0.00 0.00 0.00 36 1006.9
20260508194516 60 231 3.0 9.0 0.00 0.00 0.00 34 1006.9
20260508193016 59 315 2.0 7.0 0.00 0.00 0.00 36 1006.8
20260508191514 58 333 1.0 9.0 0.00 0.00 0.00 36 1006.9
20260508190014 59 222 1.0 6.0 0.00 0.00 0.00 37 1007.0
20260508184514 58 309 3.0 10.0 0.00 0.00 0.00 38 1006.9
20260508183012 59 248 1.0 6.0 0.00 0.00 0.00 39 1006.9
20260508181517 58 45 0.0 5.0 0.00 0.00 0.00 40 1006.9
20260508180012 58 289 1.0 9.0 0.00 0.00 0.00 42 1006.9
20260508174513 58 203 0.0 12.0 0.00 0.00 0.00 43 1006.9
20260508173010 58 286 2.0 8.0 0.00 0.00 0.00 40 1006.9
20260508171510 60 198 2.0 8.0 0.00 0.00 0.00 39 1006.8
20260508170009 58 344 0.0 5.0 0.00 0.00 0.00 40 1007.1
20260508164514 61 232 1.0 5.0 0.00 0.00 0.00 38 1006.9
20260508163005 58 60 1.0 10.0 0.00 0.00 0.00 41 1007.0
20260508161510 58 30 1.0 11.0 0.00 0.00 0.00 40 1007.1
20260508160005 58 245 1.0 8.0 0.00 0.00 0.00 41 1007.5
20260508154503 57 255 3.0 12.0 0.00 0.00 0.00 39 1007.6
20260508153002 58 311 2.0 10.0 0.00 0.00 0.00 38 1007.6
20260508151559 57 257 4.0 9.0 0.00 0.00 0.00 42 1007.5
20260508150057 56 244 1.0 9.0 0.00 0.00 0.00 41 1007.6
20260508144558 56 298 1.0 6.0 0.00 0.00 0.00 42 1007.6
20260508143057 56 53 1.0 5.0 0.00 0.00 0.00 42 1007.8
20260508141555 56 293 0.0 7.0 0.00 0.00 0.00 42 1007.9
20260508140053 56 259 0.0 6.0 0.00 0.00 0.00 46 1008.0
20260508134550 55 99 1.0 8.0 0.00 0.00 0.00 45 1008.2
20260508133048 54 46 1.0 8.0 0.00 0.00 0.00 48 1008.2
20260508131544 54 243 1.0 4.0 0.00 0.00 0.00 48 1008.3
20260508130104 52 9 0.0 3.0 0.00 0.00 0.00 51 1008.2
20260508124537 51 24 0.0 3.0 0.00 0.00 0.00 55 1008.3
20260508123034 50 151 0.0 3.0 0.00 0.00 0.00 57 1008.5
20260508121530 48 356 0.0 2.0 0.00 0.00 0.00 60 1008.5
20260508120027 47 234 0.0 4.0 0.00 0.00 0.00 63 1008.5
20260508114523 46 247 1.0 5.0 0.00 0.00 0.00 65 1008.5
20260508113023 44 207 0.0 2.0 0.00 0.00 0.00 68 1008.5
20260508111522 43 295 0.0 2.0 0.00 0.00 0.00 72 1008.4
20260508110020 42 266 0.0 2.0 0.00 0.00 0.00 74 1008.3
20260508104532 40 264 0.0 1.0 0.00 0.00 0.00 77 1008.2
20260508103017 40 262 0.0 0.0 0.00 0.00 0.00 77 1008.0
20260508101515 40 262 0.0 2.0 0.00 0.00 0.00 78 1007.9
20260508100015 39 271 0.0 1.0 0.00 0.00 0.00 81 1007.7
20260508094512 39 270 0.0 1.0 0.00 0.00 0.00 79 1007.6
20260508093010 40 270 0.0 2.0 0.00 0.00 0.00 76 1007.6
20260508091510 40 290 0.0 2.0 0.00 0.00 0.00 76 1007.5
20260508090015 39 251 0.0 3.0 0.00 0.00 0.00 78 1007.4
20260508084507 38 103 0.0 0.0 0.00 0.00 0.00 79 1007.2
20260508083005 38 102 0.0 0.0 0.00 0.00 0.00 79 1007.1
20260508081504 37 103 0.0 0.0 0.00 0.00 0.00 78 1006.8
20260508080002 37 102 0.0 0.0 0.00 0.00 0.00 77 1006.5
20260508074600 38 103 0.0 0.0 0.00 0.00 0.00 77 1006.3
20260508073058 39 103 0.0 0.0 0.00 0.00 0.00 77 1006.0
20260508071601 40 103 0.0 0.0 0.00 0.00 0.00 74 1006.1